ATLAS V CENTAUR R/B - Orbit

View from above orbital plane
View from above orbital plane
View from above satellite
View from above satellite

Ground track
Ground track

The orbit data is extracted from the following two-line orbital elements,

1 27500U 02038B   13140.51828039  .00035766  00000-0  39233-2 0  6381
2 27500 017.9805 095.1879 7087191 357.5695 340.9755 02.54878379 84501
Epoch (UTC): 20 May 2013 12:26:19
Eccentricity: 0.7087191
inclination: 17.9805°
perigee height: 216 km
apogee height: 32304 km
right ascension of ascending node: 95.1879°
argument of perigee: 357.5695°
revolutions per day: 2.54878379
mean anomaly at epoch: 340.9755°
orbit number at epoch: 8450

The dashed part of the orbit path shows where the satellite is in the earth's shadow,  

Developed and maintained by Chris Peat, Heavens-Above GmbH. Please read the updated FAQ before sending e-mail. Imprint. DLR